Sauk Centre, MN

7:54 AM CST on December 13, 2019 (GMT -0600)
Sauk Centre

Weather History for KD39 - September, 2019

Change the Weather History Date:

Monday, September 23, 2019

  Actual Average (WUND) Record (WUND)
Temperature  
Mean Temperature 62 °F -  
Max Temperature 73 °F - - (-1)
Min Temperature 50 °F - - (-1)
Degree Days  
Heating Degree Days 4    
Growing Degree Days 12 (Base 50)    
Moisture  
Dew Point 50 °F    
Average Humidity 73    
Maximum Humidity 100    
Minimum Humidity 38    
Precipitation  
Precipitation 0.00 in - - ()
Sea Level Pressure  
Sea Level Pressure 29.94 in    
Wind  
Wind Speed 4 mph ()    
Max Wind Speed 12 mph    
Max Gust Speed 17 mph    
Visibility 10.0 miles    
Events      
Averages and records for this station are not official NWS values.
T = Trace of Precipitation, MM = Missing Value Source: Averaged Metar Reports

Daily Weather History Graph

Daily Weather History Graph

Search for Another Location

Airport or City:

Astronomy

Sep. 23, 2019 Rise Set
Actual Time 7:07 AM CDT 7:15 PM CDT
Civil Twilight 6:38 AM CDT 7:45 PM CDT
Nautical Twilight 6:03 AM CDT 8:20 PM CDT
Astronomical Twilight 5:27 AM CDT 8:55 PM CDT
Moon 12:32 AM CDT (9/23) 4:29 PM CDT (9/23)
Length of Visible Light 13h 07m
Length of Day
12h 07m
Waning Crescent, 33% of the Moon is Illuminated
Sep 23
Waning Crescent
Sep 28
New
Oct 5
First Quarter
Oct 13
Full
Oct 21
Last Quarter

Hourly Weather History & Observations

Time (CDT) Temp. Dew Point Humidity Pressure Visibility Wind Dir Wind Speed Gust Speed Precip Events Conditions
12:59 AM 53.6 °F 51.8 °F 94% 29.91 in 10.0 mi Calm Calm - N/A   Mostly Cloudy
1:59 AM 51.8 °F 51.8 °F 100% 29.92 in 10.0 mi Calm Calm - N/A   Mostly Cloudy
2:59 AM 51.8 °F 50.0 °F 94% 29.93 in 10.0 mi SW 3.5 mph - N/A   Mostly Cloudy
3:59 AM 51.8 °F 48.2 °F 88% 29.92 in 10.0 mi WSW 3.5 mph - N/A   Clear
4:59 AM 51.8 °F 48.2 °F 88% 29.94 in 10.0 mi West 5.8 mph - N/A   Clear
5:59 AM 50.0 °F 48.2 °F 94% 29.94 in 10.0 mi Calm Calm - N/A   Clear
6:59 AM 50.0 °F 48.2 °F 94% 29.96 in 10.0 mi Calm Calm - N/A   Clear
7:59 AM 51.8 °F 50.0 °F 94% 29.97 in 10.0 mi WSW 4.6 mph - N/A   Clear
8:59 AM 57.2 °F 51.8 °F 82% 29.97 in 10.0 mi West 6.9 mph - N/A   Clear
9:59 AM 60.8 °F 51.8 °F 72% 29.99 in 10.0 mi West 10.4 mph - N/A   Clear
10:59 AM 64.4 °F 51.8 °F 64% 29.99 in 10.0 mi West 9.2 mph - N/A   Clear
11:59 AM 68.0 °F 51.8 °F 56% 29.99 in 10.0 mi WSW 9.2 mph - N/A   Clear
12:59 PM 69.8 °F 50.0 °F 49% 29.98 in 10.0 mi West 9.2 mph - N/A   Clear
1:59 PM 71.6 °F 48.2 °F 43% 29.97 in 10.0 mi WSW 9.2 mph 17.3 mph N/A   Clear
2:59 PM 73.4 °F 46.4 °F 38% 29.95 in 10.0 mi WSW 11.5 mph 16.1 mph N/A   Clear
3:59 PM 73.4 °F 48.2 °F 41% 29.94 in 10.0 mi WSW 11.5 mph 16.1 mph N/A   Clear
4:59 PM 73.4 °F 48.2 °F 41% 29.93 in 10.0 mi WSW 10.4 mph - N/A   Clear
5:59 PM 71.6 °F 50.0 °F 46% 29.92 in 10.0 mi SW 5.8 mph - N/A   Clear
6:59 PM 68.0 °F 51.8 °F 56% 29.92 in 10.0 mi SSW 3.5 mph - N/A   Clear
7:59 PM 59.0 °F 51.8 °F 77% 29.92 in 10.0 mi SSE 5.8 mph - N/A   Clear
8:59 PM 59.0 °F 51.8 °F 77% 29.91 in 10.0 mi SSE 3.5 mph - N/A   Clear
9:59 PM 57.2 °F 50.0 °F 77% 29.91 in 10.0 mi SSE 3.5 mph - N/A   Clear
10:59 PM 55.4 °F 50.0 °F 82% 29.90 in 10.0 mi South 3.5 mph - N/A   Clear
11:59 PM 51.8 °F 50.0 °F 94% 29.89 in 10.0 mi SSE 5.8 mph - N/A   Clear